ショーマス彗星

24P/Schaumasse (2017)

English version
Home page
Updated on June 25, 2018

---------------------------------------------------------------------

・ プロフィール

・ 写真集

・ 軌道要素

Epoch 2017 Nov. 23.0 TT = JDT 2458080.5
T 2017 Nov. 16.92638 TT                                 MPCW
q   1.2063410            (2000.0)            P               Q
n   0.11943659     Peri.   58.05801     -0.72204095     -0.66229192
a   4.0836117      Node    79.62982     +0.54603862     -0.72309604
e   0.7045897      Incl.   11.73515     +0.42485137     -0.19621807
P   8.25
From 1049 observations 1992 Sept. 24-2018 Apr. 28, mean residual 0".9.
     Nongravitational parameters A1 = +0.06, A2 = -0.0477.

・ 星図

・ 光度変化

        m1 = 12.0 + 5 logΔ + 17.0 log r  [   ,-90]  (              〜2017年 8月18日)
        m1 =  6.0 + 5 logΔ + 45.0 log r  [-90,  0]  (2017年 8月18日〜2017年11月16日)
        m1 =  7.2 + 5 logΔ + 30.0 log r  [  0,170]  (2017年11月16日〜2018年 5月 5日)
        m1 = 12.0 + 5 logΔ + 17.0 log r  [170,   ]  (2018年 5月 5日〜              )

---------------------------------------------------------------------

軌道要素はM.P.E.C. 2018-H105に掲載されたものです。
星図はステラナビゲータ Ver.8 (アストロアーツ) で作成したものです。
光度グラフはComet for Windowsで作成したものです。

---------------------------------------------------------------------

Copyright(C) Seiichi Yoshida (comet@aerith.net). All rights reserved.